Location: Observatorio del Centro Ecologico de Sonora
(29.0667°N, 110.9333°W)
Time: 11:56:07
(UTC-07:00)

ISS - Visible Passes

Search period start: 24 April 2017 00:00
Search period end: 04 May 2017 00:00
Orbit: 400 x 409 km, 51.6° (Epoch: 25 April)

Date Brightness Start Highest point End Pass type
(mag) Time Alt. Az. Time Alt. Az. Time Alt. Az.
01 May -1.1 04:30:37 10° SSE 04:32:29 14° SE 04:34:21 10° E visible
02 May -3.8 05:13:05 10° SW 05:16:20 71° NW 05:19:34 10° NE visible
03 May -3.0 04:22:40 27° S 04:24:00 44° SE 04:27:07 10° ENE visible
